FW6684 Weather Reports


Display with metric or nautical units.
time (UTC)temp
F
wind
direction
speed
MPH
gust
MPH
rain 1hr
in
rain 24hr
in
rain mn
in
humidity
%
barometer
mb
20260906160545 77 136 2.0 11.0 0.00 0.00 0.00 48 1019.9
20260906160109 77 196 4.0 12.0 0.00 0.00 0.00 46 1019.9
20260906155544 77 205 3.0 12.0 0.00 0.00 0.00 46 1019.9
20260906155044 77 143 4.0 12.0 0.00 0.00 0.00 45 1020.1
20260906154600 77 211 4.0 11.0 0.00 0.00 0.00 45 1020.1
20260906154044 77 207 4.0 12.0 0.00 0.00 0.00 44 1020.1
20260906153544 77 196 4.0 12.0 0.00 0.00 0.00 43 1020.0
20260906153102 78 182 5.0 14.0 0.00 0.00 0.00 44 1020.1
20260906152543 78 209 5.0 14.0 0.00 0.00 0.00 44 1020.0
20260906152043 79 197 5.0 14.0 0.00 0.00 0.00 44 1020.2
20260906151600 79 200 5.0 12.0 0.00 0.00 0.00 43 1020.1
20260906151042 79 202 5.0 11.0 0.00 0.00 0.00 42 1020.1
20260906150543 79 202 5.0 17.0 0.00 0.00 0.00 41 1020.1
20260906150105 80 242 6.0 17.0 0.00 0.00 0.00 39 1020.3
20260906145546 80 233 5.0 16.0 0.00 0.00 0.00 38 1020.3
20260906145045 80 153 7.0 16.0 0.00 0.00 0.00 37 1020.2
20260906144559 80 229 7.0 15.0 0.00 0.00 0.00 36 1020.2
20260906144042 81 173 4.0 12.0 0.00 0.00 0.00 38 1020.3
20260906143543 81 186 6.0 11.0 0.00 0.00 0.00 37 1020.3
20260906143103 81 291 4.0 14.0 0.00 0.00 0.00 37 1020.4
20260906142542 81 170 5.0 14.0 0.00 0.00 0.00 38 1020.3
20260906142045 81 167 4.0 11.0 0.00 0.00 0.00 37 1020.4
20260906141600 80 227 4.0 11.0 0.00 0.00 0.00 36 1020.5
20260906141043 80 236 4.0 17.0 0.00 0.00 0.00 35 1020.7
20260906140543 80 195 6.0 17.0 0.00 0.00 0.00 35 1020.7
20260906140108 80 217 4.0 14.0 0.00 0.00 0.00 38 1020.7
20260906135543 79 209 7.0 19.0 0.00 0.00 0.00 35 1020.7
20260906135042 80 219 4.0 19.0 0.00 0.00 0.00 35 1020.8
20260906134628 79 180 6.0 19.0 0.00 0.00 0.00 38 1020.9
20260906134043 79 184 3.0 14.0 0.00 0.00 0.00 39 1021.0
20260906133542 79 211 7.0 14.0 0.00 0.00 0.00 38 1021.1
20260906133100 79 205 3.0 11.0 0.00 0.00 0.00 45 1021.2
20260906132543 78 160 4.0 14.0 0.00 0.00 0.00 44 1021.3
20260906132043 78 174 6.0 14.0 0.00 0.00 0.00 42 1021.3
20260906131603 78 195 4.0 9.0 0.00 0.00 0.00 45 1021.5
20260906131042 78 223 2.0 9.0 0.00 0.00 0.00 45 1021.5
20260906130543 78 189 2.0 12.0 0.00 0.00 0.00 46 1021.6
20260906130147 77 190 3.0 15.0 0.00 0.00 0.00 45 1021.7
20260906125543 77 188 5.0 15.0 0.00 0.00 0.00 44 1021.8
20260906125043 77 188 7.0 14.0 0.00 0.00 0.00 41 1021.8
20260906124611 77 203 4.0 14.0 0.00 0.00 0.00 39 1021.8
20260906124043 77 213 7.0 14.0 0.00 0.00 0.00 44 1021.9
20260906123543 77 111 3.0 14.0 0.00 0.00 0.00 48 1022.0
20260906123103 77 211 6.0 13.0 0.00 0.00 0.00 47 1022.0
20260906122621 77 160 4.0 13.0 0.00 0.00 0.00 49 1022.1
20260906122044 77 141 5.0 13.0 0.00 0.00 0.00 47 1022.0
20260906121607 77 215 4.0 15.0 0.00 0.00 0.00 47 1022.2
20260906121044 77 141 5.0 15.0 0.00 0.00 0.00 47 1022.3
20260906120544 76 225 4.0 14.0 0.00 0.00 0.00 49 1022.3
20260906120112 76 225 2.0 14.0 0.00 0.00 0.00 48 1022.3
20260906115545 76 210 4.0 14.0 0.00 0.00 0.00 49 1022.3
20260906115045 76 223 6.0 14.0 0.00 0.00 0.00 47 1022.3
20260906114602 75 181 7.0 14.0 0.00 0.00 0.00 48 1022.3
20260906114046 75 212 5.0 14.0 0.00 0.00 0.00 49 1022.3
20260906113543 75 221 3.0 12.0 0.00 0.00 0.00 52 1022.4
20260906113102 75 154 2.0 13.0 0.00 0.00 0.00 52 1022.3
20260906112544 74 152 6.0 17.0 0.00 0.00 0.00 53 1022.3
20260906112044 74 209 9.0 17.0 0.00 0.00 0.00 53 1022.3
20260906111558 75 191 5.0 11.0 0.00 0.00 0.00 55 1022.4
20260906111046 75 220 1.0 10.0 0.00 0.00 0.00 59 1022.6
20260906110544 74 217 3.0 12.0 0.00 0.00 0.00 58 1022.7
20260906105544 73 203 3.0 10.0 0.00 0.00 0.00 61 1022.8
20260906105046 73 157 3.0 9.0 0.00 0.00 0.00 61 1022.8
20260906104601 73 160 3.0 10.0 0.00 0.00 0.00 62 1022.8
20260906104044 73 254 3.0 13.0 0.00 0.00 0.00 62 1022.9
20260906103545 72 210 3.0 13.0 0.00 0.00 0.00 64 1022.9
20260906103100 72 170 3.0 13.0 0.00 0.00 0.00 64 1023.1
20260906102548 71 145 5.0 13.0 0.00 0.00 0.00 63 1023.1
20260906102044 71 208 6.0 14.0 0.00 0.00 0.00 63 1023.1
20260906101601 71 199 4.0 14.0 0.00 0.00 0.00 66 1023.1
20260906101044 71 210 5.0 14.0 0.00 0.00 0.00 66 1023.2
20260906100547 70 191 5.0 14.0 0.00 0.00 0.00 66 1023.3
20260906100100 70 188 6.0 14.0 0.00 0.00 0.00 66 1023.3
20260906095544 70 217 4.0 11.0 0.00 0.00 0.00 67 1023.4
20260906095044 70 167 3.0 12.0 0.00 0.00 0.00 67 1023.4
20260906094601 70 157 3.0 12.0 0.00 0.00 0.00 69 1023.3
20260906094045 69 205 3.0 12.0 0.00 0.00 0.00 70 1023.4
20260906093544 69 115 2.0 11.0 0.00 0.00 0.00 71 1023.5
20260906093103 68 140 4.0 11.0 0.00 0.00 0.00 70 1023.5
20260906092544 68 200 3.0 11.0 0.00 0.00 0.00 72 1023.6
20260906092045 68 111 5.0 11.0 0.00 0.00 0.00 71 1023.6
20260906091602 68 198 4.0 11.0 0.00 0.00 0.00 71 1023.7
20260906091044 68 196 1.0 11.0 0.00 0.00 0.00 74 1023.7
20260906090544 67 200 2.0 11.0 0.00 0.00 0.00 73 1023.7
20260906090106 67 162 4.0 10.0 0.00 0.00 0.00 74 1023.9
20260906085544 66 200 2.0 9.0 0.00 0.00 0.00 74 1023.8
20260906085044 66 186 2.0 9.0 0.00 0.00 0.00 75 1023.7
20260906084603 66 205 3.0 9.0 0.00 0.00 0.00 75 1023.7
20260906084048 65 152 1.0 10.0 0.00 0.00 0.00 77 1023.8
20260906083545 65 173 3.0 14.0 0.00 0.00 0.00 77 1023.7
20260906083105 64 154 4.0 14.0 0.00 0.00 0.00 77 1023.9
20260906082544 64 152 6.0 13.0 0.00 0.00 0.00 77 1024.0
20260906082044 64 207 2.0 10.0 0.00 0.00 0.00 78 1023.8
20260906081604 64 140 4.0 10.0 0.00 0.00 0.00 78 1023.9
20260906081045 64 154 2.0 9.0 0.00 0.00 0.00 78 1024.0
20260906080544 64 173 2.0 8.0 0.00 0.00 0.00 79 1024.0
20260906075543 63 165 2.0 7.0 0.00 0.00 0.00 81 1024.1
20260906075045 62 0 1.0 7.0 0.00 0.00 0.00 81 1024.2
20260906074600 62 139 2.0 6.0 0.00 0.00 0.00 82 1024.4
20260906074043 62 161 1.0 5.0 0.00 0.00 0.00 84 1024.4
20260906073544 61 154 0.0 3.0 0.00 0.00 0.00 86 1024.3
20260906073104 60 0 0.0 3.0 0.00 0.00 0.00 86 1024.4
20260906072544 59 0 0.0 2.0 0.00 0.00 0.00 87 1024.4
20260906072045 59 0 0.0 3.0 0.00 0.00 0.00 87 1024.4
20260906071601 59 0 0.0 3.0 0.00 0.00 0.00 87 1024.5
20260906071044 58 0 0.0 3.0 0.00 0.00 0.00 87 1024.6
20260906070544 58 0 0.0 3.0 0.00 0.00 0.00 87 1024.5
20260906065544 57 0 0.0 5.0 0.00 0.00 0.00 89 1024.6
20260906065043 57 150 1.0 4.0 0.00 0.00 0.00 89 1024.5
20260906064559 57 146 0.0 3.0 0.00 0.00 0.00 89 1024.5
20260906064044 57 0 0.0 3.0 0.00 0.00 0.00 90 1024.4
20260906063543 57 147 1.0 4.0 0.00 0.00 0.00 90 1024.7
20260906063101 56 147 1.0 4.0 0.00 0.00 0.00 91 1024.7
20260906062543 56 0 0.0 2.0 0.00 0.00 0.00 92 1024.7
20260906062044 55 0 0.0 1.0 0.00 0.00 0.00 91 1024.7
20260906061626 55 0 0.0 2.0 0.00 0.00 0.00 90 1024.6
20260906061046 55 0 0.0 2.0 0.00 0.00 0.00 90 1024.8
20260906060543 55 330 0.0 0.0 0.00 0.00 0.00 90 1024.9
20260906060121 55 0 0.0 0.0 0.00 0.00 0.00 90 1024.7
20260906055544 55 0 0.0 1.0 0.00 0.00 0.00 90 1024.8
20260906055044 55 0 0.0 1.0 0.00 0.00 0.00 90 1025.0
20260906054605 55 0 0.0 2.0 0.00 0.00 0.00 90 1025.1
20260906054044 55 330 0.0 2.0 0.00 0.00 0.00 90 1025.0
20260906053545 55 330 0.0 2.0 0.00 0.00 0.00 90 1025.0
20260906053102 55 330 0.0 2.0 0.00 0.00 0.00 90 1025.1
20260906052544 55 0 0.0 0.0 0.00 0.00 0.00 90 1025.2
20260906052044 55 0 0.0 0.0 0.00 0.00 0.00 90 1025.2
20260906051606 55 0 0.0 0.0 0.00 0.00 0.00 90 1025.3
20260906051044 55 0 0.0 2.0 0.00 0.00 0.00 90 1025.2
20260906050547 55 0 0.0 2.0 0.00 0.00 0.00 89 1025.2
20260906050104 55 0 1.0 2.0 0.00 0.00 0.00 89 1025.2
20260906045544 56 284 0.0 3.0 0.00 0.00 0.00 89 1025.3
20260906045044 56 284 1.0 3.0 0.00 0.00 0.00 89 1025.2
20260906044603 56 283 1.0 3.0 0.00 0.00 0.00 90 1025.2
20260906044044 56 281 1.0 3.0 0.00 0.00 0.00 89 1025.2
20260906043543 56 280 1.0 2.0 0.00 0.00 0.00 90 1025.1
20260906043106 56 279 0.0 1.0 0.00 0.00 0.00 89 1025.2
20260906042544 56 0 0.0 1.0 0.00 0.00 0.00 89 1025.2
20260906042043 56 0 0.0 2.0 0.00 0.00 0.00 89 1025.2
20260906041602 55 0 0.0 2.0 0.00 0.00 0.00 89 1025.3
20260906041044 55 0 0.0 2.0 0.00 0.00 0.00 89 1025.3
20260906040544 55 0 0.0 0.0 0.00 0.00 0.00 89 1025.4
20260906040106 55 0 0.0 0.0 0.00 0.00 0.00 89 1025.4
20260906035545 55 0 0.0 0.0 0.00 0.00 0.00 89 1025.5
20260906035044 55 0 0.0 0.0 0.00 0.00 0.00 89 1025.5
20260906034606 55 0 0.0 0.0 0.00 0.00 0.00 89 1025.5
20260906034045 55 0 0.0 0.0 0.00 0.00 0.00 89 1025.5
20260906033543 55 0 0.0 0.0 0.00 0.00 0.00 89 1025.5
20260906033059 55 0 0.0 0.0 0.00 0.00 0.00 89 1025.6
20260906032543 55 0 0.0 1.0 0.00 0.00 0.00 89 1025.7
20260906032043 55 0 0.0 2.0 0.00 0.00 0.00 88 1025.6
20260906031557 55 0 0.0 2.0 0.00 0.00 0.00 88 1025.6
20260906031043 55 0 1.0 2.0 0.00 0.00 0.00 88 1025.7
20260906030543 55 278 0.0 2.0 0.00 0.00 0.00 88 1025.6
20260906030100 55 0 0.0 1.0 0.00 0.00 0.00 88 1025.6
20260906025543 55 0 0.0 1.0 0.00 0.00 0.00 88 1025.5
20260906025043 55 0 0.0 1.0 0.00 0.00 0.00 88 1025.5
20260906024559 55 0 0.0 1.0 0.00 0.00 0.00 88 1025.6
20260906024046 55 0 0.0 1.0 0.00 0.00 0.00 88 1025.7
20260906023543 55 0 0.0 1.0 0.00 0.00 0.00 88 1025.9
20260906023103 55 0 0.0 1.0 0.00 0.00 0.00 88 1026.0
20260906022543 55 0 0.0 2.0 0.00 0.00 0.00 88 1026.0
20260906022043 55 0 0.0 2.0 0.00 0.00 0.00 88 1026.0
20260906021604 55 0 0.0 2.0 0.00 0.00 0.00 88 1026.1
20260906021043 55 0 0.0 1.0 0.00 0.00 0.00 88 1026.4
20260906020544 55 0 0.0 1.0 0.00 0.00 0.00 88 1026.4
20260906020101 55 0 0.0 2.0 0.00 0.00 0.00 88 1026.4
20260906015543 55 278 0.0 2.0 0.00 0.00 0.00 88 1026.3
20260906015043 55 277 0.0 2.0 0.00 0.00 0.00 88 1026.5
20260906014607 55 0 0.0 2.0 0.00 0.00 0.00 88 1026.6
20260906014043 55 0 1.0 2.0 0.00 0.00 0.00 88 1026.5
20260906013543 55 0 0.0 0.0 0.00 0.00 0.00 88 1026.6
20260906013102 55 0 0.0 0.0 0.00 0.00 0.00 87 1026.6
20260906012544 55 0 0.0 1.0 0.00 0.00 0.00 87 1026.6
20260906012044 55 0 0.0 2.0 0.00 0.00 0.00 87 1026.7
20260906011606 56 0 1.0 2.0 0.00 0.00 0.00 87 1026.7
20260906011044 56 0 0.0 1.0 0.00 0.00 0.00 87 1026.7
20260906010543 56 0 0.0 2.0 0.00 0.00 0.00 87 1026.7
20260906005543 55 0 0.0 2.0 0.00 0.00 0.00 87 1026.7
20260906005045 55 0 0.0 2.0 0.00 0.00 0.00 86 1026.7
20260906004604 55 0 1.0 2.0 0.00 0.00 0.00 86 1026.7
20260906004043 55 275 0.0 2.0 0.00 0.00 0.00 86 1026.7
20260906003544 55 0 0.0 2.0 0.00 0.00 0.00 86 1026.8
20260906003105 56 0 0.0 2.0 0.00 0.00 0.00 86 1026.9
20260906002543 56 275 0.0 2.0 0.00 0.00 0.00 86 1026.8
20260906002044 56 0 0.0 2.0 0.00 0.00 0.00 86 1027.0
20260906001602 56 0 0.0 2.0 0.00 0.00 0.00 87 1027.1
20260906001045 56 274 0.0 2.0 0.00 0.00 0.00 87 1027.1
20260906000543 56 0 0.0 1.0 0.00 0.00 0.00 86 1027.2
20260906000111 56 0 0.0 1.0 0.00 0.00 0.00 86 1027.3
20260905235543 56 0 0.0 1.0 0.00 0.00 0.00 86 1027.3
20260905235045 56 0 0.0 2.0 0.00 0.00 0.00 86 1027.2
20260905234609 56 273 0.0 3.0 0.00 0.00 0.00 86 1027.2
20260905234043 56 273 1.0 3.0 0.00 0.00 0.00 86 1027.2
20260905233544 56 273 0.0 1.0 0.00 0.00 0.00 86 1027.2
20260905233117 56 0 0.0 0.0 0.00 0.00 0.00 85 1027.2
20260905232543 56 0 0.0 1.0 0.00 0.00 0.00 85 1027.2
20260905232043 56 0 0.0 2.0 0.00 0.00 0.00 85 1027.2
20260905231601 56 0 0.0 2.0 0.00 0.00 0.00 85 1027.1
20260905231044 56 0 0.0 2.0 0.00 0.00 0.00 85 1027.1
20260905230543 56 272 0.0 2.0 0.00 0.00 0.00 85 1027.1
20260905225542 57 0 0.0 1.0 0.00 0.00 0.00 85 1027.1
20260905225043 57 0 0.0 1.0 0.00 0.00 0.00 84 1027.1
20260905224602 57 0 0.0 2.0 0.00 0.00 0.00 85 1027.1
20260905224044 57 0 0.0 2.0 0.00 0.00 0.00 84 1027.1
20260905223543 57 0 0.0 1.0 0.00 0.00 0.00 84 1027.1
20260905223102 58 0 0.0 1.0 0.00 0.00 0.00 84 1027.1
20260905222544 58 0 0.0 2.0 0.00 0.00 0.00 84 1027.1
20260905222043 58 0 0.0 2.0 0.00 0.00 0.00 83 1027.1
20260905221605 58 0 0.0 0.0 0.00 0.00 0.00 82 1027.0
20260905221043 58 0 0.0 0.0 0.00 0.00 0.00 81 1027.1
20260905220543 58 0 0.0 0.0 0.00 0.00 0.00 81 1026.8
20260905215544 58 0 0.0 1.0 0.00 0.00 0.00 80 1026.9
20260905215043 58 0 0.0 2.0 0.00 0.00 0.00 79 1026.9
20260905214601 58 0 0.0 2.0 0.00 0.00 0.00 79 1026.9
20260905214043 58 267 0.0 0.0 0.00 0.00 0.00 79 1027.0
20260905213543 58 0 0.0 0.0 0.00 0.00 0.00 79 1026.9
20260905213113 58 0 0.0 0.0 0.00 0.00 0.00 79 1026.9
20260905212544 59 0 0.0 1.0 0.00 0.00 0.00 80 1026.9
20260905212042 59 0 0.0 1.0 0.00 0.00 0.00 79 1026.8
20260905211610 59 0 0.0 0.0 0.00 0.00 0.00 79 1026.8
20260905211045 59 0 0.0 1.0 0.00 0.00 0.00 79 1026.7
20260905210544 59 0 0.0 1.0 0.00 0.00 0.00 79 1026.6
20260905210111 59 267 0.0 2.0 0.00 0.00 0.00 79 1026.6
20260905205543 59 0 0.0 2.0 0.00 0.00 0.00 78 1026.4
20260905205045 59 0 0.0 1.0 0.00 0.00 0.00 77 1026.4
20260905204600 60 0 0.0 2.0 0.00 0.00 0.00 77 1026.5
20260905204043 60 0 0.0 2.0 0.00 0.00 0.00 77 1026.4
20260905203543 61 267 0.0 2.0 0.00 0.00 0.00 77 1026.4
20260905203102 61 0 0.0 2.0 0.00 0.00 0.00 78 1026.4
20260905202545 61 0 0.0 2.0 0.00 0.00 0.00 76 1026.5
20260905202042 61 0 0.0 1.0 0.00 0.00 0.00 74 1026.4
20260905201600 61 0 0.0 1.0 0.00 0.00 0.00 74 1026.4
20260905201042 61 0 0.0 0.0 0.00 0.00 0.00 71 1026.4
20260905200545 62 0 0.0 1.0 0.00 0.00 0.00 70 1026.4
20260905200105 62 0 0.0 1.0 0.00 0.00 0.00 69 1026.4
20260905195543 63 0 0.0 1.0 0.00 0.00 0.00 68 1026.5
20260905195043 63 0 0.0 0.0 0.00 0.00 0.00 67 1026.5
20260905194601 63 0 0.0 1.0 0.00 0.00 0.00 66 1026.6
20260905194043 64 0 0.0 1.0 0.00 0.00 0.00 65 1026.5
20260905193543 65 0 0.0 2.0 0.00 0.00 0.00 66 1026.5
20260905193104 65 0 0.0 2.0 0.00 0.00 0.00 66 1026.4
20260905192543 66 0 0.0 0.0 0.00 0.00 0.00 63 1026.2
20260905192042 66 0 0.0 1.0 0.00 0.00 0.00 59 1026.2
20260905191558 67 0 0.0 1.0 0.00 0.00 0.00 59 1026.3
20260905191042 67 265 0.0 2.0 0.00 0.00 0.00 56 1026.2
20260905190546 67 0 0.0 2.0 0.00 0.00 0.00 56 1026.2
20260905185542 67 265 0.0 3.0 0.00 0.00 0.00 55 1026.1
20260905185043 68 266 1.0 4.0 0.00 0.00 0.00 55 1026.1
20260905184611 68 265 1.0 4.0 0.00 0.00 0.00 54 1025.9
20260905184043 68 265 1.0 4.0 0.00 0.00 0.00 54 1026.0
20260905183543 69 271 1.0 4.0 0.00 0.00 0.00 54 1025.9
20260905183119 69 271 2.0 4.0 0.00 0.00 0.00 53 1025.8
20260905182542 69 273 1.0 4.0 0.00 0.00 0.00 53 1026.0
20260905182042 70 273 1.0 6.0 0.00 0.00 0.00 52 1025.8
20260905181602 70 273 2.0 6.0 0.00 0.00 0.00 51 1025.9
20260905181043 70 254 2.0 4.0 0.00 0.00 0.00 50 1025.9
20260905180542 71 244 1.0 4.0 0.00 0.00 0.00 50 1025.9
20260905180106 71 0 1.0 4.0 0.00 0.00 0.00 50 1026.0
20260905175547 71 241 1.0 4.0 0.00 0.00 0.00 49 1025.9
20260905175043 71 265 2.0 5.0 0.00 0.00 0.00 49 1025.9
20260905174601 71 247 2.0 6.0 0.00 0.00 0.00 49 1025.9
20260905174044 71 249 3.0 7.0 0.00 0.00 0.00 48 1025.9
20260905173543 71 232 4.0 7.0 0.00 0.00 0.00 48 1025.9
20260905173101 72 241 2.0 6.0 0.00 0.00 0.00 48 1025.7
20260905172544 72 273 1.0 7.0 0.00 0.00 0.00 50 1025.8
20260905172042 72 265 3.0 7.0 0.00 0.00 0.00 48 1025.8
20260905171600 72 0 2.0 7.0 0.00 0.00 0.00 50 1025.8
20260905171044 72 216 3.0 7.0 0.00 0.00 0.00 49 1025.7
20260905170543 72 246 3.0 8.0 0.00 0.00 0.00 49 1025.7
20260905170104 72 213 4.0 8.0 0.00 0.00 0.00 49 1025.8
20260905165542 71 263 2.0 8.0 0.00 0.00 0.00 51 1025.8
20260905165043 71 319 3.0 8.0 0.00 0.00 0.00 51 1025.7
20260905164604 72 327 4.0 8.0 0.00 0.00 0.00 49 1025.6
20260905164043 73 320 2.0 5.0 0.00 0.00 0.00 49 1025.8
20260905163545 72 188 1.0 5.0 0.00 0.00 0.00 49 1025.7
20260905163106 72 214 1.0 5.0 0.00 0.00 0.00 51 1025.8
20260905162545 71 300 1.0 4.0 0.00 0.00 0.00 51 1025.7
20260905162044 71 298 2.0 9.0 0.00 0.00 0.00 51 1025.8
20260905161604 71 291 3.0 9.0 0.00 0.00 0.00 52 1025.8
20260905161043 72 238 3.0 8.0 0.00 0.00 0.00 50 1025.9